Location: Ansan
(43.6898°N, 0.7731°E)
Time: 20:11:00
(UTC+00:00)

Cosmos 1437 Rocket - Pass Details

Date: 15 May 2026
Orbit: 439 x 476 km, 81.2° (Epoch: 7 June)

Event Time Altitude Azimuth Distance (km) Brightness Sun altitude
Exits shadow 20:03:15 11° 126° (SE) 1,561 4.4 -8.2°
Maximum altitude 20:05:17 16° 89° (E) 1,293 4.3 -8.5°
Drops below altitude 10° 20:07:34 10° 49° (NE) 1,641 5.1 -8.8°
Sets 20:10:15 0° 28° (NNE) 2,531 6.3 -9.2°
